Ionia, MI

11:21 AM EDT on May 29, 2017 (GMT -0400)
Ionia

Weather History for KY70 - July, 2013

Change the Weather History Date:

Monday, July 8, 2013

  Actual Average (KGRR) Record (KGRR)
Temperature  
Mean Temperature 74 °F -  
Max Temperature 79 °F 83 °F 101 °F (1936)
Min Temperature 69 °F 61 °F 46 °F (1984)
Cooling Degree Days 9    
Growing Degree Days 24 (Base 50)    
Moisture  
Dew Point 70 °F    
Average Humidity 84    
Maximum Humidity 98    
Minimum Humidity 69    
Precipitation  
Precipitation 0.03 in - - ()
Sea Level Pressure  
Sea Level Pressure 29.99 in    
Wind  
Wind Speed 6 mph (SW)    
Max Wind Speed 17 mph    
Max Gust Speed 22 mph    
Visibility 8 miles    
Events Rain    
Averages and records for this station are not official NWS values.
T = Trace of Precipitation, MM = Missing Value Source: NWS Daily Summary

Daily Weather History Graph

Daily Weather History Graph

Search for Another Location

Airport or City:

Trip Planner

Search our weather history database for the weather conditions in past years. The results will help you decide how hot, cold, wet, or windy it might be!

Date:

Astronomy

Jul. 08, 2013 Rise Set
Actual Time 6:09 AM EDT 9:20 PM EDT
Civil Twilight 5:34 AM EDT 9:55 PM EDT
Nautical Twilight 4:50 AM EDT 10:39 PM EDT
Astronomical Twilight 3:56 AM EDT 11:33 PM EDT
Moon 6:40 AM EDT (7/8) 9:19 PM EDT (7/8)
Length of Visible Light 16h 20m
Length of Day
15h 11m
New Moon, 0% of the Moon is Illuminated
Jul 8
New Moon
Jul 15
First Quarter
Jul 22
Full
Jul 29
Last Quarter
Aug 6
New

Hourly Weather History & Observations

Time (EDT) Temp. Dew Point Humidity Pressure Visibility Wind Dir Wind Speed Gust Speed Precip Events Conditions
12:14 AM 72.7 °F 70.0 °F 91% 30.01 in 7.0 mi Calm Calm - N/A   Overcast
12:34 AM 71.8 °F 69.6 °F 93% 30.01 in 7.0 mi South 3.5 mph - N/A   Overcast
12:54 AM 73.0 °F 69.8 °F 90% 30.01 in 10.0 mi South 4.6 mph - N/A   Overcast
1:14 AM 73.4 °F 69.8 °F 88% 30.01 in 10.0 mi South 3.5 mph - N/A   Overcast
1:34 AM 73.6 °F 70.0 °F 88% 30.00 in 10.0 mi South 4.6 mph - N/A   Overcast
1:54 AM 73.6 °F 70.2 °F 89% 30.00 in 10.0 mi SSW 4.6 mph - N/A   Overcast
2:14 AM 73.8 °F 70.2 °F 88% 29.99 in 10.0 mi SSW 5.8 mph - N/A   Overcast
2:34 AM 73.9 °F 70.3 °F 88% 30.00 in 10.0 mi SSW 6.9 mph - N/A   Overcast
2:54 AM 73.9 °F 70.3 °F 88% 30.00 in 10.0 mi SSW 6.9 mph - N/A   Mostly Cloudy
3:14 AM 73.6 °F 70.3 °F 90% 30.00 in 10.0 mi SSW 6.9 mph - N/A   Scattered Clouds
3:34 AM 73.6 °F 70.3 °F 90% 30.01 in 10.0 mi Calm Calm - N/A   Mostly Cloudy
3:54 AM 73.2 °F 70.7 °F 92% 30.02 in 7.0 mi Calm Calm - N/A   Overcast
4:14 AM 73.0 °F 71.1 °F 93% 30.02 in 7.0 mi Calm Calm - 0.02 in Rain Light Rain
4:34 AM 72.5 °F 70.9 °F 95% 30.01 in 5.0 mi Calm Calm - 0.02 in Rain Light Rain
4:54 AM 72.5 °F 71.6 °F 97% 30.01 in 4.0 mi SW 4.6 mph - 0.02 in Rain Rain
5:14 AM 72.5 °F 71.6 °F 97% 30.00 in 5.0 mi SSW 4.6 mph - 0.01 in Rain Light Rain
5:34 AM 72.7 °F 71.4 °F 96% 30.00 in 5.0 mi SW 4.6 mph - 0.01 in   Overcast
5:54 AM 72.9 °F 71.6 °F 96% 30.00 in 5.0 mi SSW 4.6 mph - 0.01 in   Overcast
6:14 AM 72.5 °F 71.1 °F 95% 30.00 in 4.0 mi Calm Calm - N/A   Scattered Clouds
6:34 AM 71.2 °F 70.2 °F 96% 30.00 in 1.5 mi SSE 3.5 mph - N/A   Mist
6:54 AM 71.1 °F 70.3 °F 98% 30.00 in 2.0 mi South 4.6 mph - N/A   Clear
7:14 AM 71.8 °F 71.1 °F 98% 30.00 in 3.0 mi South 4.6 mph - N/A   Clear
7:34 AM 72.1 °F 71.1 °F 96% 30.00 in 4.0 mi South 5.8 mph - N/A   Clear
7:54 AM 72.5 °F 71.2 °F 96% 30.01 in 4.0 mi South 5.8 mph - N/A   Clear
8:14 AM 73.6 °F 71.8 °F 94% 30.01 in 5.0 mi South 4.6 mph - N/A   Clear
8:34 AM 74.3 °F 71.8 °F 92% 30.00 in 7.0 mi South 6.9 mph - N/A   Clear
8:54 AM 74.7 °F 72.0 °F 91% 30.00 in 7.0 mi South 8.1 mph - N/A   Clear
9:14 AM 75.2 °F 71.8 °F 89% 30.00 in 10.0 mi South 5.8 mph - N/A   Mostly Cloudy
9:34 AM 75.7 °F 71.8 °F 87% 30.00 in 10.0 mi South 5.8 mph - N/A   Mostly Cloudy
9:54 AM 76.1 °F 71.6 °F 86% 30.01 in 10.0 mi SSW 8.1 mph - N/A   Mostly Cloudy
10:14 AM 76.6 °F 71.8 °F 85% 30.00 in 10.0 mi SSW 5.8 mph - N/A   Overcast
10:34 AM 77.9 °F 72.3 °F 83% 30.01 in 10.0 mi SSW 9.2 mph - N/A   Scattered Clouds
10:54 AM 78.1 °F 72.1 °F 82% 30.01 in 10.0 mi SW 9.2 mph - N/A   Clear
11:14 AM 79.3 °F 72.0 °F 78% 30.01 in 10.0 mi WSW 11.5 mph - N/A   Scattered Clouds
11:34 AM 79.5 °F 71.8 °F 77% 30.02 in 10.0 mi WSW 15.0 mph - N/A   Mostly Cloudy
11:54 AM 78.8 °F 72.0 °F 79% 30.02 in 10.0 mi West 9.2 mph - N/A   Overcast
12:14 PM 78.8 °F 71.4 °F 78% 30.02 in 10.0 mi West 11.5 mph - N/A   Overcast
12:34 PM 78.4 °F 69.1 °F 73% 30.02 in 10.0 mi West 12.7 mph 20.7 mph N/A   Mostly Cloudy
12:54 PM 77.7 °F 69.1 °F 75% 30.02 in 10.0 mi West 11.5 mph - N/A Rain Light Rain
1:14 PM 76.6 °F 70.7 °F 82% 30.01 in 10.0 mi WSW 10.4 mph - N/A Rain Light Rain
1:34 PM 77.2 °F 69.6 °F 77% 30.00 in 10.0 mi SW 10.4 mph - N/A   Scattered Clouds
1:54 PM 77.7 °F 69.6 °F 76% 30.00 in 10.0 mi WSW 10.4 mph - N/A Rain Light Rain
2:14 PM 77.9 °F 68.9 °F 74% 30.00 in 10.0 mi WSW 11.5 mph 19.6 mph N/A   Overcast
2:34 PM 78.8 °F 68.7 °F 71% 29.99 in 10.0 mi SW 9.2 mph - N/A   Overcast
2:54 PM 76.3 °F 69.3 °F 79% 29.99 in 7.0 mi SW 11.5 mph - N/A Rain Light Rain
3:14 PM 76.5 °F 69.8 °F 80% 29.99 in 10.0 mi SW 8.1 mph - N/A   Overcast
3:34 PM 78.8 °F 69.6 °F 73% 29.98 in 10.0 mi SW 16.1 mph - N/A   Overcast
3:54 PM 77.5 °F 69.4 °F 76% 29.98 in 10.0 mi SW 10.4 mph - N/A   Overcast
4:14 PM 79.3 °F 68.5 °F 69% 29.97 in 10.0 mi WSW 17.3 mph - N/A   Mostly Cloudy
4:34 PM 79.5 °F 68.7 °F 69% 29.96 in 10.0 mi WSW 16.1 mph 21.9 mph N/A   Overcast
4:54 PM 79.7 °F 68.5 °F 69% 29.96 in 10.0 mi SW 17.3 mph 21.9 mph N/A   Overcast
5:14 PM 79.0 °F 68.0 °F 69% 29.96 in 10.0 mi WSW 17.3 mph - N/A   Overcast
5:34 PM 79.0 °F 68.5 °F 70% 29.96 in 10.0 mi WSW 16.1 mph - N/A   Overcast
5:54 PM 78.6 °F 68.5 °F 71% 29.96 in 10.0 mi WSW 11.5 mph - N/A   Overcast
6:14 PM 77.7 °F 68.2 °F 72% 29.96 in 10.0 mi WSW 10.4 mph 18.4 mph N/A   Overcast
6:34 PM 77.5 °F 68.4 °F 73% 29.96 in 10.0 mi WSW 9.2 mph 17.3 mph N/A   Overcast
6:54 PM 77.4 °F 68.7 °F 75% 29.96 in 10.0 mi WSW 9.2 mph - N/A   Overcast
7:14 PM 77.2 °F 68.9 °F 76% 29.97 in 10.0 mi West 9.2 mph 16.1 mph N/A   Overcast
7:34 PM 76.5 °F 68.9 °F 77% 29.97 in 10.0 mi WSW 9.2 mph - N/A   Overcast
7:54 PM 76.5 °F 68.9 °F 77% 29.98 in 10.0 mi West 10.4 mph - N/A   Overcast
8:14 PM 76.1 °F 68.9 °F 78% 29.97 in 10.0 mi West 6.9 mph - N/A   Overcast
8:34 PM 76.1 °F 68.9 °F 78% 29.98 in 10.0 mi WSW 5.8 mph - N/A   Overcast
8:54 PM 75.7 °F 68.9 °F 79% 29.98 in 10.0 mi WSW 6.9 mph - N/A   Overcast
9:14 PM 75.2 °F 68.9 °F 81% 29.98 in 10.0 mi WSW 4.6 mph - N/A   Overcast
9:34 PM 74.7 °F 68.9 °F 82% 29.98 in 10.0 mi SW 4.6 mph - N/A   Overcast
9:54 PM 74.3 °F 68.9 °F 83% 29.98 in 10.0 mi Calm Calm - N/A   Overcast
10:14 PM 72.0 °F 68.9 °F 90% 29.98 in 7.0 mi Calm Calm - N/A   Scattered Clouds
10:34 PM 71.6 °F 69.1 °F 92% 29.98 in 10.0 mi Calm Calm - N/A   Scattered Clouds
10:54 PM 72.0 °F 68.7 °F 89% 29.98 in 10.0 mi SSW 3.5 mph - N/A   Scattered Clouds
11:14 PM 69.6 °F 68.2 °F 95% 29.99 in 7.0 mi Calm Calm - N/A   Overcast
11:34 PM 70.0 °F 68.4 °F 95% 29.99 in 7.0 mi Calm Calm - N/A   Overcast
11:54 PM 69.3 °F 68.2 °F 96% 29.99 in 5.0 mi Calm Calm - N/A   Mostly Cloudy